Temperature
14 15 15 16 19 21 22 22 22 21 21 20 20 21 22 22 22 21 15 15 15 15 15 16 16 16 16 16 16 16 16 16 16 16 16 16 16 16 16 16 17 16 16 16 16 16 16 16 16
14 15 15 18 20 22 22 22 21 21 20 18 18 19 20 20 17 15 14 15 15 15 15 15 16 16 16 16 16 16 16 16 16 16 16 16 16 16 16 16 16 16 16 16 16 16 16 16 16
14 15 17 19 20 22 22 21 21 20 18 18 19 18 19 18 15 14 14 15 15 15 15 15 16 16 16 16 16 16 16 16 16 16 16 16 16 16 16 16 16 16 16 16 16 16 16 16 16
14 15 17 20 20 21 21 21 20 19 18 18 19 19 17 14 14 14 15 14 14 15 15 15 15 15 16 16 16 16 16 16 16 16 16 16 16 16 16 16 16 16 16 16 15 15 15 15 15
14 17 19 19 20 20 20 19 19 20 20 18 19 19 17 14 14 14 14 14 14 14 15 15 15 15 15 15 15 15 16 16 16 16 16 15 16 16 16 16 16 16 15 15 15 15 15 15 15
15 18 19 20 20 19 19 18 19 20 19 18 18 19 16 14 14 14 14 14 14 14 14 15 15 15 15 15 15 15 15 15 15 15 15 15 15 15 15 15 15 15 15 15 15 15 15 15 15
17 18 19 20 20 19 19 18 19 20 20 18 18 19 16 14 14 14 14 14 14 14 14 14 15 15 15 15 15 15 15 15 15 15 15 15 15 15 15 15 15 15 15 15 15 15 15 15 15
15 18 18 19 19 19 18 17 17 19 19 16 17 19 17 14 14 14 13 14 14 14 14 14 14 14 14 14 14 14 14 14 14 14 14 14 14 14 14 14 14 14 14 14 14 14 14 14 14
14 17 18 19 19 19 17 17 16 15 16 15 15 16 15 14 14 13 13 13 14 14 14 14 14 14 14 14 14 14 14 14 14 14 14 14 14 14 14 14 14 14 14 14 14 14 14 14 14
15 17 18 18 18 18 17 17 16 16 17 16 15 14 14 14 13 13 13 13 13 14 14 14 13 13 13 13 13 14 14 14 14 14 14 14 14 14 14 14 14 14 14 14 14 14 14 13 13
15 16 17 16 15 16 16 16 15 17 18 17 17 14 14 13 13 13 13 13 13 13 13 13 13 13 13 13 13 13 13 13 13 13 13 13 13 13 13 13 13 13 13 13 13 13 13 13 13
15 15 15 15 13 14 15 15 16 16 17 16 15 15 14 13 13 13 13 13 13 13 13 13 13 13 13 13 13 13 13 13 13 13 13 13 13 13 13 12 12 12 12 13 12 12 12 12 12
14 14 13 13 13 13 14 15 15 15 14 14 14 14 13 14 13 13 13 13 13 13 13 13 13 12 12 12 12 12 12 12 12 12 12 12 12 12 12 12 12 12 12 12 12 12 12 12 12
14 14 14 13 13 13 14 15 14 15 14 13 13 13 13 13 13 12 12 12 12 12 12 12 12 12 12 12 12 12 12 12 12 12 12 12 12 12 11 11 11 11 11 11 11 11 11 11 11
12 14 14 14 14 13 14 15 15 15 14 13 13 13 13 13 12 12 13 13 12 12 12 12 12 12 12 12 12 11 11 11 11 11 11 11 11 11 11 11 11 10 10 10 10 10 10 10 10
13 14 15 14 14 13 14 16 17 14 14 14 14 14 13 12 12 12 12 12 12 12 12 12 12 11 11 11 11 11 11 11 11 11 11 11 11 10 10 10 10 10 10 10 10 9 9 9 9
13 15 15 14 13 13 14 16 16 13 13 14 14 14 13 12 12 12 12 12 12 12 12 12 11 11 11 11 11 11 11 10 10 10 10 10 10 10 10 10 9 9 9 9 9 8 8 8 8
14 15 15 15 13 13 13 15 15 13 13 14 14 14 13 13 12 12 12 12 11 11 11 11 11 11 11 10 10 10 10 10 10 10 10 10 10 9 9 9 9 9 8 8 8 8 8 8 7
14 14 14 14 12 12 13 14 15 14 13 14 14 14 13 13 12 11 11 11 11 11 11 11 11 11 10 10 10 10 10 10 9 9 9 9 9 9 9 9 8 8 8 8 7 7 7 7 7
12 13 14 13 11 12 13 14 15 15 14 14 14 14 13 13 12 11 11 11 11 11 11 11 10 10 10 10 10 10 9 9 9 9 9 9 9 8 8 8 8 8 7 7 7 7 7 6 6
12 13 13 13 11 11 12 14 15 14 13 13 12 13 13 12 12 11 10 10 11 11 11 11 10 10 10 10 9 9 9 9 9 9 9 8 8 8 8 8 8 7 7 7 7 6 6 6 6
12 12 12 11 12 13 12 15 16 15 13 13 12 12 12 12 11 11 10 10 10 11 11 10 10 10 9 9 9 9 9 8 8 8 8 8 8 8 7 7 7 7 7 6 6 6 6 5 5
11 10 11 11 12 12 12 12 16 14 14 14 13 12 11 11 10 10 10 10 10 10 10 10 10 9 9 9 9 9 8 8 8 8 8 7 7 7 7 7 7 6 6 6 6 6 5 5 5
9 10 10 10 11 11 12 13 15 15 14 14 13 12 11 10 10 9 9 10 10 10 10 10 9 9 9 9 8 8 8 8 8 7 7 7 7 7 7 6 6 6 6 5 5 5 5 5 4
10 11 10 10 10 12 11 12 14 14 13 13 12 11 10 9 9 9 9 9 9 9 9 9 9 9 8 8 8 8 8 7 7 7 7 6 6 6 6 6 5 5 5 5 5 5 4 4 4
10 11 11 12 13 13 9 11 13 12 11 10 10 10 9 9 8 8 8 8 9 9 9 9 9 8 8 8 8 7 7 7 7 6 6 6 6 6 5 5 5 5 5 4 4 4 4 4 3
9 10 11 11 10 11 12 12 12 11 10 10 10 9 9 8 8 8 8 8 8 8 9 8 8 8 8 7 7 7 7 6 6 6 6 6 5 5 5 5 5 5 4 4 4 4 3 3 3
9 10 9 9 10 12 13 12 13 12 11 10 10 9 9 7 7 7 7 7 7 7 8 8 7 7 7 7 7 7 6 6 6 6 5 5 5 5 5 5 4 4 4 4 3 3 3 3 3
7 8 9 10 10 12 13 14 12 11 11 10 10 9 8 7 6 6 6 6 6 7 7 7 7 7 7 7 7 6 6 6 5 5 5 5 5 5 4 4 4 4 4 3 3 3 3 3 3
8 9 9 9 8 9 12 13 10 10 9 9 9 8 7 6 6 6 6 6 6 6 6 6 6 6 6 6 6 6 6 5 5 5 5 5 4 4 4 4 4 3 3 3 3 3 3 2 2
Wind_Speed
1 2 3 3 5 6 8 6 4 5 4 2 3 3 4 3 1 4 5 6 7 7 8 9 9 10 11 11 11 11 10 10 10 10 10 9 9 9 8 8 7 6 5 5 4 4 4 4 4
2 3 4 4 6 9 7 6 8 5 4 5 4 3 3 3 4 7 7 6 7 8 8 9 10 10 11 11 11 11 11 10 9 9 9 9 9 9 8 8 8 7 6 5 4 4 4 4 4
3 3 5 5 7 9 5 5 7 6 6 4 4 2 2 4 6 5 6 8 8 8 9 10 10 11 11 11 11 11 11 11 11 10 10 10 10 9 9 9 8 8 7 6 6 5 4 4 4
4 4 4 7 10 7 3 5 6 8 6 3 4 5 4 4 3 5 8 8 9 9 9 11 11 11 11 11 11 11 11 11 11 11 11 10 10 10 9 9 9 9 8 8 7 6 5 4 3
4 5 7 8 10 5 4 4 6 8 7 6 5 5 5 4 5 9 9 9 9 9 9 11 11 11 11 11 10 10 10 10 10 10 11 11 10 10 10 10 9 9 9 8 8 7 6 5 3
6 5 8 12 11 6 5 6 7 8 6 6 6 6 5 6 8 9 9 8 8 9 9 10 11 11 11 11 11 10 10 10 10 10 10 10 10 10 10 10 9 9 9 9 8 7 7 7 6
6 6 7 8 8 8 6 6 8 8 8 7 5 6 7 9 8 9 9 8 8 8 8 8 9 10 11 11 11 11 10 10 10 10 10 10 10 10 10 9 9 9 8 8 8 7 7 6 6
4 5 6 7 8 7 6 5 4 7 6 4 5 5 7 11 10 9 9 8 8 7 7 7 7 7 8 9 11 11 11 10 10 9 9 9 8 9 9 8 9 8 8 7 7 7 6 5 5
4 7 9 8 7 5 6 6 4 2 5 4 3 1 5 14 12 11 9 8 7 7 6 6 6 6 7 7 8 9 9 8 7 7 7 5 5 5 6 8 8 7 7 7 6 6 5 4 3
8 9 8 4 4 3 6 6 6 6 7 6 5 4 9 13 13 13 11 10 9 7 6 5 6 6 6 6 5 5 5 6 5 4 4 4 4 4 4 5 6 6 5 5 5 5 4 3 3
8 8 6 4 3 3 5 5 5 7 8 9 10 11 13 13 13 13 11 10 9 8 6 5 5 5 5 4 4 4 4 4 5 5 4 4 3 3 3 3 3 3 3 3 3 3 3 3 3
6 7 5 4 3 4 4 4 5 8 5 2 6 11 14 15 15 14 12 11 9 8 7 6 5 5 4 4 4 3 3 3 3 4 3 3 3 2 3 3 3 3 3 3 3 3 3 3 3
10 5 5 5 3 4 4 6 5 8 6 3 5 11 14 15 14 12 10 10 9 9 8 7 6 5 4 4 3 3 2 2 3 3 3 3 2 2 2 2 2 3 3 3 3 3 3 3 4
7 8 5 5 6 5 6 8 6 8 6 7 9 12 13 14 13 12 11 11 10 9 8 7 6 5 4 3 3 2 2 2 2 2 2 2 2 2 1 2 2 2 3 3 3 3 3 3 3
4 6 7 8 8 5 5 10 13 10 8 9 11 11 12 13 12 13 12 11 10 9 8 7 6 5 5 4 3 2 2 2 1 2 2 2 2 1 1 1 1 2 3 3 3 4 3 3 4
5 7 8 7 8 7 8 12 8 8 10 11 11 11 11 12 13 12 12 11 10 9 9 7 6 6 5 4 3 2 2 2 1 1 1 1 1 2 1 1 2 2 3 3 3 3 4 4 4
8 9 10 7 7 7 11 10 5 5 9 11 11 11 12 12 12 12 12 11 10 10 9 8 7 6 5 4 3 2 2 2 1 1 0 0 1 1 2 2 2 3 2 3 3 4 4 5 5
10 10 8 9 6 8 11 12 8 6 9 11 11 11 12 12 13 12 11 11 10 9 9 8 7 7 6 4 3 2 2 1 1 1 0 1 1 2 2 2 3 3 3 3 3 4 5 5 6
6 8 8 5 3 7 12 15 13 11 11 12 12 12 12 12 11 10 11 10 10 9 9 8 8 7 5 4 4 3 2 2 1 1 1 1 2 2 2 2 3 3 3 4 5 5 6 5 5
8 8 8 3 2 5 9 15 14 13 14 13 13 13 13 12 11 10 10 10 11 10 9 9 8 7 6 4 3 2 2 2 2 2 2 2 2 3 3 3 3 4 4 4 5 5 5 5 4
13 13 10 5 2 4 6 11 11 9 11 11 12 12 12 12 12 12 11 11 11 10 10 8 8 8 7 5 3 2 2 2 2 2 2 2 3 3 4 4 4 4 5 5 5 5 6 6 6
12 9 8 6 5 5 4 6 6 6 8 9 10 10 11 11 11 11 11 11 11 10 9 8 8 7 6 5 4 4 4 4 4 3 3 4 4 4 5 5 5 6 5 6 6 6 6 7 7
5 5 6 6 6 6 7 7 7 5 8 8 9 9 8 8 9 10 10 10 10 9 8 7 7 6 6 5 5 5 4 4 3 3 4 5 4 5 5 6 6 7 6 7 7 7 7 7 8
8 7 5 3 4 8 10 10 8 6 7 5 6 7 7 7 8 8 8 8 8 7 7 6 7 6 5 5 5 5 5 5 4 5 5 5 5 5 6 7 7 8 7 8 8 8 9 9 10
9 8 5 5 7 9 6 9 8 3 3 4 4 4 4 6 7 7 8 8 7 7 6 6 6 6 5 5 5 6 6 6 6 6 6 6 6 6 7 7 8 8 9 9 9 9 10 10 11
14 11 8 8 7 5 6 9 4 1 2 2 2 2 3 4 5 6 6 6 6 6 6 6 6 6 5 5 5 5 6 5 5 6 6 7 6 7 8 9 9 10 10 10 10 9 11 10 11
11 11 5 2 1 4 6 5 4 3 3 3 3 3 3 4 4 4 5 5 5 6 6 6 6 5 5 5 5 5 5 6 6 7 7 7 7 7 9 9 10 10 11 11 11 10 11 11 12
5 8 6 6 6 8 7 7 6 6 5 4 4 3 3 3 3 4 4 4 4 4 4 5 5 5 4 4 4 4 5 6 6 6 7 8 9 8 9 10 10 11 11 11 11 11 11 12 12
8 8 7 6 5 6 7 4 2 4 4 4 3 2 2 3 3 3 3 3 3 3 3 3 4 3 3 3 4 4 5 5 6 6 7 8 8 9 9 10 11 11 11 11 12 12 13 13 13
9 10 10 7 6 4 5 3 4 2 2 2 2 2 2 2 2 2 2 3 3 2 2 2 2 2 2 3 4 4 5 5 6 7 7 8 9 9 10 10 11 11 11 12 12 13 13 13 14
Wind_Direction
230 208 200 200 206 220 226 206 192 167 174 157 144 168 177 160 150 105 102 115 118 120 115 114 98 97 96 92 90 90 90 90 91 91 89 90 90 87 84 83 86 90 93 97 95 97 101 96 99
200 187 194 206 223 219 213 198 193 176 136 130 137 155 157 118 70 101 121 115 120 115 111 105 100 97 97 94 92 89 88 89 90 91 90 88 85 84 81 78 77 79 81 82 83 84 85 89 91
174 210 202 204 223 228 200 172 178 147 142 157 146 133 118 112 113 115 115 127 124 113 107 97 96 96 97 96 94 91 88 85 84 85 86 85 82 80 78 74 72 69 69 71 71 71 74 83 86
184 185 208 225 222 225 213 147 153 157 160 171 160 136 115 78 101 115 125 130 123 113 107 99 94 95 94 95 95 93 89 86 84 80 81 82 80 77 73 70 69 66 64 63 63 62 60 65 70
203 198 206 221 225 215 208 180 173 177 169 168 173 147 127 104 107 123 129 128 123 113 103 102 94 93 93 93 94 94 91 88 84 80 78 77 76 74 70 67 66 64 61 60 61 58 55 52 51
188 207 217 222 216 206 202 191 188 191 175 167 172 150 126 129 133 131 130 127 120 114 106 103 95 91 91 90 90 91 90 89 85 81 78 76 75 73 71 66 63 62 60 59 58 56 52 48 42
205 208 226 225 215 210 196 184 197 192 187 178 173 158 140 149 141 138 133 125 119 116 112 106 104 98 90 85 86 87 87 87 85 83 79 76 76 73 69 65 62 60 59 58 56 52 49 46 40
224 216 221 218 214 208 174 173 192 200 182 144 183 181 161 156 148 141 133 125 117 115 113 110 106 100 98 92 83 82 82 83 85 83 81 80 81 75 67 63 57 55 54 53 50 47 42 39 39
208 223 223 214 211 196 170 179 164 164 154 159 181 108 117 141 150 149 143 138 130 121 118 115 111 105 99 93 90 87 84 80 85 85 82 83 78 74 70 58 54 53 53 49 43 38 32 23 39
204 225 226 214 210 183 175 190 171 175 184 185 177 144 139 152 164 167 166 161 155 146 133 123 118 112 105 96 94 88 84 81 76 78 78 78 75 67 66 71 59 55 54 51 40 32 27 7 1
206 228 221 210 205 189 182 183 184 197 207 208 196 173 163 170 177 180 178 172 165 154 143 135 127 121 114 105 97 90 87 83 77 71 77 82 79 68 56 55 52 43 38 30 22 16 15 3 359
208 222 220 201 180 193 197 190 205 220 228 205 199 173 171 179 185 187 183 176 166 160 154 147 141 132 120 112 104 99 96 89 80 70 58 69 72 57 48 44 35 27 22 11 3 355 355 346 342
214 210 216 219 207 213 215 225 237 238 229 202 172 174 183 187 189 188 182 176 171 168 162 156 151 144 133 121 110 101 93 91 88 75 57 52 65 55 45 39 33 22 12 4 350 344 344 335 334
212 214 217 220 217 217 229 241 237 238 207 194 188 190 193 192 190 184 184 183 180 174 169 161 160 152 143 137 128 112 106 99 84 75 58 46 58 55 32 31 21 11 5 356 343 337 328 321 319
181 209 228 227 223 218 222 243 232 228 206 205 202 200 198 198 195 194 191 189 184 178 171 166 163 160 154 147 139 130 124 116 95 83 65 49 39 37 28 6 359 357 349 344 340 336 327 319 311
186 211 225 208 207 203 214 246 222 206 205 212 210 204 203 203 204 202 196 192 186 180 175 169 168 169 165 155 150 142 140 133 121 102 70 44 28 6 350 342 339 338 336 334 328 325 323 316 306
202 218 222 203 197 195 216 246 215 190 210 219 215 212 209 207 207 204 199 194 190 185 179 175 174 173 169 160 154 151 149 152 159 160 90 4 340 329 333 335 323 320 321 322 320 320 317 311 307
205 214 218 214 186 205 223 241 233 215 226 228 222 217 213 212 209 202 198 194 190 187 182 179 175 174 167 164 159 156 163 177 188 202 237 287 313 318 315 311 314 315 308 312 314 314 311 306 305
215 211 220 211 178 219 238 251 250 238 233 233 228 220 216 215 207 198 194 190 186 184 183 182 180 176 172 171 176 183 188 200 212 223 247 269 293 306 304 299 303 304 302 302 303 304 304 305 311
212 218 225 215 188 240 262 265 258 245 235 233 229 224 220 215 204 195 191 188 188 185 185 183 184 182 183 185 187 197 198 220 233 240 249 264 277 287 291 292 292 291 289 288 292 302 300 305 309
221 227 228 223 213 236 284 269 240 230 227 227 229 229 225 216 206 195 191 189 188 188 188 187 187 187 188 185 175 171 201 219 228 236 250 266 277 275 277 282 284 284 282 282 284 287 288 295 295
223 223 221 214 227 240 248 270 237 216 215 220 223 221 220 211 206 197 191 189 190 189 185 187 186 187 187 187 194 200 218 235 250 255 262 271 271 273 274 275 278 278 279 278 279 281 283 283 283
201 168 190 209 230 255 228 250 254 207 227 227 217 212 210 203 198 194 190 189 188 183 181 184 184 187 189 196 201 213 230 244 253 259 264 273 274 274 275 276 276 277 277 278 279 279 278 275 275
145 133 131 178 222 246 227 226 252 215 225 218 203 201 199 192 187 185 183 182 181 177 176 179 182 188 192 201 210 221 232 244 253 261 268 272 274 274 273 275 275 274 275 276 276 275 272 270 270
179 170 176 199 214 234 188 220 246 234 226 226 209 194 183 176 177 176 175 177 176 175 178 182 186 191 197 207 220 230 237 244 251 262 267 274 276 278 277 276 274 274 274 274 275 274 270 267 267
195 198 201 211 222 209 189 227 237 239 231 228 208 178 159 161 167 170 171 174 173 174 178 184 192 197 202 215 230 238 242 248 256 261 268 270 273 275 278 276 273 273 274 273 272 274 272 268 266
183 209 226 212 239 240 218 231 256 221 207 191 180 162 154 151 153 159 161 164 166 170 178 186 193 202 211 222 231 240 246 253 260 265 268 270 271 276 276 276 275 275 274 272 272 270 273 272 268
208 174 175 197 204 229 228 225 211 181 186 175 166 159 143 133 138 144 151 155 159 163 174 185 195 206 217 227 236 247 253 260 266 269 272 274 275 275 277 277 277 276 275 274 272 274 272 272 271
176 185 197 195 227 227 230 211 156 180 176 174 167 144 130 130 138 142 146 150 151 153 164 181 196 208 222 236 248 258 264 268 270 271 275 279 280 278 277 278 278 278 278 278 276 275 275 273 273
212 200 190 196 205 221 238 209 101 144 156 161 148 128 118 118 126 133 137 138 142 151 164 180 205 224 239 250 259 266 268 271 274 278 283 284 284 283 280 279 279 279 280 280 278 277 274 271 271
Height
1498 1500 1503 1506 1505 1499 1493 1490 1490 1494 1495 1497 1498 1497 1496 1497 1499 1507 1509 1508 1510 1512 1514 1514 1516 1517 1518 1518 1519 1519 1520 1520 1520 1520 1521 1521 1521 1521 1521 1521 1521 1521 1521 1521 1521 1521 1521 1520 1520
1499 1501 1505 1505 1499 1495 1490 1488 1491 1492 1495 1498 1499 1499 1499 1501 1504 1506 1506 1508 1510 1512 1514 1515 1516 1517 1518 1518 1519 1519 1520 1520 1520 1520 1521 1521 1521 1521 1521 1521 1521 1521 1521 1521 1521 1520 1520 1520 1520
1499 1501 1504 1500 1494 1488 1486 1488 1489 1495 1498 1498 1499 1500 1501 1503 1505 1506 1507 1508 1511 1513 1514 1515 1516 1517 1518 1518 1519 1519 1520 1520 1520 1520 1520 1520 1520 1520 1521 1520 1520 1520 1520 1520 1520 1520 1520 1519 1519
1500 1503 1503 1496 1490 1487 1487 1489 1492 1495 1498 1499 1499 1500 1503 1504 1505 1506 1506 1509 1512 1513 1514 1515 1516 1517 1518 1518 1519 1519 1519 1519 1520 1520 1520 1520 1520 1520 1520 1520 1520 1520 1520 1519 1519 1519 1519 1519 1518
1499 1500 1496 1492 1488 1488 1490 1492 1493 1493 1495 1497 1499 1499 1502 1504 1503 1505 1507 1510 1512 1513 1515 1515 1516 1517 1518 1518 1518 1519 1519 1519 1519 1519 1519 1519 1519 1519 1519 1519 1519 1519 1519 1518 1518 1518 1518 1517 1517
1499 1496 1491 1487 1485 1488 1490 1493 1493 1492 1494 1497 1498 1499 1502 1503 1504 1506 1508 1510 1512 1513 1514 1515 1516 1517 1517 1518 1518 1518 1518 1519 1519 1519 1519 1518 1518 1518 1518 1518 1518 1518 1517 1517 1517 1517 1516 1516 1516
1496 1492 1485 1483 1484 1487 1489 1492 1492 1491 1493 1496 1497 1498 1502 1504 1504 1506 1508 1510 1512 1513 1514 1515 1516 1516 1517 1517 1517 1518 1518 1518 1518 1518 1518 1518 1518 1517 1517 1517 1517 1516 1516 1516 1515 1515 1515 1514 1514
1494 1491 1486 1485 1484 1485 1489 1491 1492 1492 1493 1496 1498 1497 1500 1503 1503 1506 1508 1510 1511 1512 1514 1515 1515 1516 1516 1516 1517 1517 1517 1517 1517 1517 1517 1517 1516 1516 1516 1516 1515 1515 1514 1514 1514 1513 1513 1513 1512
1494 1491 1483 1482 1483 1484 1488 1490 1492 1493 1494 1495 1496 1498 1499 1500 1502 1505 1507 1509 1510 1512 1513 1514 1515 1515 1516 1516 1516 1516 1516 1516 1516 1516 1516 1516 1515 1515 1515 1514 1514 1513 1513 1512 1512 1511 1511 1511 1510
1492 1486 1481 1483 1484 1485 1488 1489 1491 1492 1492 1494 1495 1496 1497 1499 1502 1504 1506 1508 1509 1511 1512 1513 1514 1514 1515 1515 1515 1515 1515 1515 1515 1515 1515 1514 1514 1514 1513 1513 1512 1512 1511 1511 1510 1510 1509 1509 1508
1487 1483 1483 1486 1487 1487 1488 1489 1490 1490 1489 1490 1492 1494 1495 1498 1501 1503 1505 1507 1508 1510 1511 1512 1513 1513 1514 1514 1514 1514 1514 1514 1514 1514 1513 1513 1513 1513 1512 1512 1511 1510 1510 1509 1508 1508 1507 1506 1506
1485 1485 1486 1486 1487 1488 1488 1488 1489 1489 1488 1489 1491 1492 1494 1496 1499 1501 1503 1506 1507 1508 1509 1510 1511 1512 1513 1513 1513 1513 1513 1513 1513 1513 1512 1512 1512 1511 1511 1510 1509 1509 1508 1507 1507 1506 1505 1504 1503
1483 1484 1486 1487 1487 1488 1488 1488 1487 1486 1488 1488 1489 1491 1492 1495 1497 1500 1502 1504 1505 1506 1508 1509 1510 1511 1511 1512 1512 1512 1512 1512 1512 1511 1511 1511 1510 1510 1509 1508 1508 1507 1506 1505 1505 1504 1503 1502 1501
1482 1483 1485 1485 1486 1487 1487 1486 1487 1483 1485 1486 1487 1489 1491 1493 1495 1497 1499 1501 1503 1504 1506 1507 1508 1509 1510 1510 1511 1511 1511 1511 1511 1510 1510 1509 1509 1508 1507 1506 1506 1505 1504 1503 1502 1502 1500 1499 1498
1483 1483 1482 1483 1484 1484 1486 1482 1480 1480 1483 1484 1485 1487 1489 1491 1492 1494 1496 1498 1500 1502 1504 1505 1506 1507 1508 1509 1509 1509 1509 1509 1509 1509 1508 1508 1507 1506 1505 1504 1503 1503 1502 1501 1500 1499 1498 1497 1495
1481 1480 1477 1477 1480 1482 1485 1473 1473 1477 1479 1481 1482 1484 1486 1487 1489 1492 1494 1496 1498 1500 1501 1503 1504 1505 1506 1507 1507 1508 1508 1508 1507 1507 1506 1506 1505 1504 1503 1502 1501 1500 1500 1498 1497 1496 1495 1494 1492
1476 1471 1469 1474 1478 1479 1479 1470 1472 1475 1476 1477 1479 1480 1482 1484 1486 1488 1490 1493 1495 1497 1499 1500 1502 1503 1504 1505 1505 1506 1506 1506 1505 1505 1504 1504 1503 1502 1501 1500 1499 1498 1497 1496 1495 1494 1492 1491 1489
1466 1466 1468 1469 1474 1477 1475 1469 1470 1473 1474 1474 1475 1477 1478 1480 1482 1485 1487 1489 1491 1494 1496 1497 1499 1500 1501 1502 1503 1503 1503 1504 1503 1503 1502 1501 1501 1500 1499 1497 1496 1495 1494 1493 1492 1491 1489 1488 1486
1464 1465 1466 1468 1475 1476 1471 1467 1465 1468 1470 1470 1471 1472 1474 1476 1479 1481 1483 1485 1488 1490 1492 1494 1496 1497 1498 1499 1500 1501 1501 1501 1501 1500 1500 1499 1498 1497 1496 1495 1493 1492 1491 1490 1489 1488 1486 1484 1483
1468 1467 1466 1471 1476 1474 1469 1464 1461 1462 1463 1465 1466 1467 1469 1472 1475 1476 1478 1481 1483 1485 1488 1490 1492 1494 1496 1497 1498 1498 1498 1498 1498 1497 1497 1496 1495 1494 1493 1492 1491 1489 1488 1487 1486 1484 1482 1481 1480
1466 1465 1465 1468 1474 1475 1472 1457 1453 1455 1458 1460 1461 1463 1464 1467 1469 1471 1473 1476 1479 1481 1484 1486 1489 1491 1493 1494 1495 1495 1495 1495 1495 1494 1493 1493 1492 1491 1490 1489 1488 1486 1485 1483 1482 1481 1479 1478 1477
1463 1466 1468 1471 1470 1464 1469 1454 1444 1449 1452 1455 1456 1458 1459 1462 1464 1467 1469 1472 1474 1477 1481 1483 1485 1488 1489 1490 1491 1492 1492 1492 1491 1491 1490 1489 1488 1487 1486 1485 1484 1482 1481 1479 1478 1477 1475 1474 1472
1462 1467 1469 1470 1469 1469 1467 1464 1441 1447 1447 1447 1450 1453 1455 1457 1460 1462 1465 1468 1471 1474 1477 1480 1482 1484 1486 1487 1488 1488 1489 1488 1488 1487 1486 1485 1484 1483 1482 1481 1479 1478 1477 1475 1474 1472 1471 1469 1468
1466 1469 1472 1471 1469 1469 1457 1458 1439 1440 1441 1442 1447 1449 1452 1454 1457 1459 1462 1465 1468 1471 1473 1476 1478 1480 1482 1483 1484 1485 1485 1485 1484 1483 1482 1481 1480 1478 1477 1476 1475 1473 1472 1470 1468 1467 1465 1464 1462
1463 1462 1468 1469 1468 1454 1456 1455 1439 1438 1442 1443 1446 1448 1450 1452 1454 1457 1459 1461 1464 1466 1469 1472 1475 1477 1478 1480 1480 1481 1481 1480 1480 1479 1478 1477 1475 1474 1473 1471 1469 1468 1466 1465 1463 1461 1459 1458 1456
1455 1453 1453 1452 1445 1442 1460 1449 1437 1441 1444 1445 1447 1448 1449 1450 1452 1454 1456 1458 1461 1463 1466 1469 1471 1473 1475 1476 1476 1477 1476 1476 1475 1475 1473 1472 1470 1469 1467 1466 1464 1462 1461 1459 1457 1455 1453 1451 1449
1453 1451 1449 1450 1453 1447 1439 1440 1440 1441 1442 1444 1445 1446 1447 1449 1450 1452 1454 1456 1458 1460 1463 1465 1468 1469 1471 1472 1473 1473 1472 1472 1471 1470 1469 1467 1465 1464 1462 1460 1459 1457 1455 1453 1451 1449 1447 1445 1443
1450 1449 1454 1453 1449 1437 1430 1433 1429 1435 1438 1441 1443 1444 1446 1448 1449 1451 1452 1454 1456 1458 1460 1463 1465 1466 1467 1468 1468 1468 1468 1467 1466 1465 1463 1462 1460 1458 1456 1455 1453 1451 1449 1447 1445 1442 1440 1438 1436
1450 1451 1446 1444 1442 1433 1426 1426 1430 1433 1436 1439 1441 1443 1445 1447 1448 1449 1451 1453 1454 1456 1458 1460 1461 1463 1464 1464 1464 1464 1463 1463 1461 1460 1458 1457 1455 1453 1451 1449 1447 1445 1442 1441 1438 1436 1434 1431 1429
1443 1441 1443 1442 1447 1443 1429 1430 1435 1437 1438 1440 1442 1443 1445 1446 1447 1449 1450 1451 1452 1454 1455 1457 1458 1459 1460 1460 1460 1459 1459 1458 1456 1455 1453 1451 1449 1447 1445 1443 1440 1438 1436 1434 1431 1429 1427 1424 1422